{"data":{"norad_id":48306,"intl_designator":"2021-036AG","name":"STARLINK-2523","alt_names":[],"object_type":"PAYLOAD","status":"ACTIVE","operator":null,"country":"US","launch_date":"2021-04-29","launch_site_code":"AFETR","launch_vehicle":null,"mission":null,"orbit_class":"UNKNOWN","rcs_meters":null,"size_class":null,"mass_kg":null,"dimensions":null,"purposes":["comms"],"wikipedia_slug":null,"has_3d_model":false,"image_url":null,"decayed_at":null,"tle_current":{"epoch":"2026-05-25T04:01:43.415040Z","epoch_age_seconds":53747,"freshness":"FRESH","line1":"1 48306U 21036AG  26145.16786360  .00000584  00000+0  30568-4 0  9990","line2":"2 48306  53.1596 103.3203 0001175  89.2484 270.8652 15.31705233279775","mean_motion":15.31705233,"eccentricity":0.0001175,"inclination_deg":53.1596,"raan_deg":103.3203,"arg_perigee_deg":89.2484,"mean_anomaly_deg":270.8652,"bstar":3.0568e-5,"rev_number":27977,"period_min":94.012866769386,"perigee_km":469.91965475534,"apogee_km":471.52913718339,"semimajor_km":6848.8613959694,"source":"CELESTRAK","updated_at":"2026-05-25T13:38:16.678826Z"}}}